Simultaneous Nadir Overpasses (SNOs) Predictions

Prediction of SNOs between AQUA and METOP-C Satellite Orbit:

Table of predicted SNOs for the next 14.0 days since TLE Epoch: 9/17/2022
Index Date (AQUA) Time (AQUA) Lat,Lon (AQUA) SZA (AQUA ) Date (METOP-C) Time (METOP-C) Lat,Lon (METOP-C) SZA (METOP-C ) Distance(km) Time Diff (sec)
1 09/19/2022 01:51:47 73.43, 148.19 71.81 09/19/2022 01:50:41 73.40, 145.47 71.84 86.66 66
2 09/19/2022 02:41:25 -74.09, -45.62 107.49 09/19/2022 02:41:08 -74.11, -45.53 107.47 3.40 17
3 09/19/2022 03:30:53 74.16, 121.86 72.60 09/19/2022 03:31:47 74.17, 121.96 72.60 3.01 54
4 09/21/2022 21:25:28 74.07,-146.57 73.57 09/21/2022 21:24:47 74.08,-146.52 73.58 1.73 41
5 09/21/2022 22:14:54 -74.11, 20.99 106.39 09/21/2022 22:15:28 -74.10, 20.87 106.39 3.68 34
6 09/24/2022 16:09:29 -74.05, 112.49 105.38 09/24/2022 16:08:27 -74.07, 112.53 105.36 2.14 62
7 09/24/2022 16:58:57 74.12, -80.04 74.71 09/24/2022 16:59:06 74.11, -80.04 74.70 1.89 9
8 09/24/2022 17:48:30 -74.51, 86.67 104.87 09/24/2022 17:49:39 -74.53, 88.38 104.88 50.56 69
9 09/27/2022 10:53:22 73.63, 12.44 75.27 09/27/2022 10:52:14 73.56, 10.41 75.23 64.28 68
10 09/27/2022 11:42:56 -74.08, 179.08 104.26 09/27/2022 11:42:45 -74.10, 179.02 104.24 3.12 11
11 09/27/2022 12:32:24 74.15, -13.45 75.83 09/27/2022 12:33:23 74.18, -13.44 75.86 3.01 59
12 09/30/2022 06:26:58 74.10, 78.03 76.85 09/30/2022 06:26:23 74.07, 78.05 76.82 3.31 35
13 09/30/2022 07:16:24 -74.13,-114.40 103.11 09/30/2022 07:17:04 -74.13,-114.50 103.12 3.08 40



Historial Predications of SNOs between AQUA and METOP-C
